User: anonymous
Location: Bangkok
(13.7500°N, 100.5170°E)
Time: 13:15:28
(UTC+07:00)
Language:

Cosmos 1898 Rocket - Orbit

View from above orbital plane
View from above orbital plane
View from above satellite
View from above satellite

Ground track
Ground track

The orbit data is extracted from the following two-line orbital elements,

1 18586U 87098B   14242.43514946  .00000100  00000-0  42951-4 0  1076
2 18586 074.0094 016.4314 0021965 313.3270 101.2101 14.36448835400630
Epoch (UTC): 30 August 2014 10:26:36
Eccentricity: 0.0021965
inclination: 74.0094°
perigee height: 754 km
apogee height: 786 km
right ascension of ascending node: 16.4314°
argument of perigee: 313.3270°
revolutions per day: 14.36448835
mean anomaly at epoch: 101.2101°
orbit number at epoch: 40063

The dashed part of the orbit path shows where the satellite is in the earth's shadow,  

DLR